Location: Bidwell Hollow
(37.7387°N, 90.1707°W)
Time: 17:50:39
(UTC+00:00)

Altair - Pass Details

Date: 19 May 2026
Orbit: 1501 x 1682 km, 47.2° (Epoch: 9 June)

Event Time Altitude Azimuth Distance (km) Brightness Sun altitude
Exits shadow 07:08:57 17° 134° (SE) 3,259 9.0 -30.0°
Maximum altitude 07:10:23 18° 123° (ESE) 3,232 9.0 -29.9°
Drops below altitude 10° 07:16:20 10° 85° (E) 3,876 9.9 -29.5°
Sets 07:20:51 0° 68° (ENE) 4,894 10.7 -29.2°
